Simultaneous Nadir Overpasses (SNOs) Predictions

Prediction of SNOs between GOES-14 and AQUA Satellite Orbit:

Table of predicted SNOs for the next 14.0 days since TLE Epoch: 10/16/2021
Index Date Time (GOES-14) GOES-14 Lat,Lon AQUA Lat,Lon Distance(km) Time Diff (sec)
1 10/16/2021 20:26:34 -0.25,-104.19 0.10,-102.42 200.52 80
2 10/17/2021 08:47:51 0.22,-104.29 0.91,-107.59 375.09 80
3 10/19/2021 08:35:39 0.23,-104.30 0.28,-104.63 38.08 80
4 10/21/2021 08:20:46 0.23,-104.30 -0.31,-101.66 299.15 80
5 10/21/2021 20:42:10 -0.21,-104.18 -0.77,-106.86 304.19 80
6 10/23/2021 20:32:37 -0.21,-104.19 -0.18,-103.89 33.62 80
7 10/25/2021 20:20:25 -0.22,-104.19 0.48,-100.93 371.18 80
8 10/26/2021 08:41:41 0.19,-104.34 0.59,-106.09 200.00 80
9 10/28/2021 08:26:49 0.20,-104.33 -0.08,-103.13 136.73 80
10 10/28/2021 20:48:12 -0.17,-104.17 -1.05,-108.32 471.87 80
